RAM970 LPMA-GMTT

Flight info

Callsign RAM970
Flight time N/A
Altitude 24000
Route DEGUN UQ11 GIKAR UZ9 NARTA/N0461F360 DCT VFA/N0423F230 UN726 ORTOP N726 BAMBA DCT VAGNO
Aircraft B738/M-SDE2E3FGHIRWXY/LB1

Departure

Time N/A
Airport Cristiano Ronaldo International Airport (LPMA)

Arrival

Time 2026-04-26 19:38
Airport Tangier Ibn Battuta Airport (GMTT)
Time Latitude Longitude Altitude Speed Heading
2026-04-26 19:12 36.62286 -7.73853 24017 ft 431 kts 155°
2026-04-26 19:12 36.59590 -7.72232 24020 ft 431 kts 155°
2026-04-26 19:12 36.56890 -7.70610 24019 ft 431 kts 154°
2026-04-26 19:13 36.54186 -7.68986 24021 ft 431 kts 154°
2026-04-26 19:13 36.51487 -7.67366 24017 ft 431 kts 155°
2026-04-26 19:13 36.48817 -7.65765 23992 ft 419 kts 155°
2026-04-26 19:13 36.46236 -7.64218 23998 ft 403 kts 154°
2026-04-26 19:14 36.43759 -7.62734 23995 ft 388 kts 155°
2026-04-26 19:14 36.41370 -7.61304 23997 ft 374 kts 154°
2026-04-26 19:14 36.39058 -7.59921 23845 ft 366 kts 154°
2026-04-26 19:14 36.37543 -7.59016 23692 ft 362 kts 154°
2026-04-26 19:15 36.34558 -7.57234 23218 ft 358 kts 155°
2026-04-26 19:15 36.32319 -7.55899 22862 ft 355 kts 154°
2026-04-26 19:15 36.30098 -7.54574 22492 ft 353 kts 154°
2026-04-26 19:15 36.27889 -7.53258 22136 ft 351 kts 154°
2026-04-26 19:16 36.25699 -7.51954 21774 ft 348 kts 154°
2026-04-26 19:16 36.23525 -7.50660 21430 ft 346 kts 154°
2026-04-26 19:16 36.21359 -7.49371 21071 ft 344 kts 154°
2026-04-26 19:16 36.19209 -7.48093 20727 ft 342 kts 154°
2026-04-26 19:17 36.17066 -7.46820 20382 ft 340 kts 154°
2026-04-26 19:17 36.14939 -7.45557 20036 ft 339 kts 154°
2026-04-26 19:17 36.12866 -7.44325 19694 ft 337 kts 154°
2026-04-26 19:17 36.10711 -7.43046 19340 ft 336 kts 154°
2026-04-26 19:18 36.08602 -7.41795 19007 ft 335 kts 154°
2026-04-26 19:18 36.06507 -7.40555 18674 ft 333 kts 154°
2026-04-26 19:18 36.04446 -7.39255 18320 ft 331 kts 145°
2026-04-26 19:18 36.02854 -7.37287 17975 ft 328 kts 123°
2026-04-26 19:19 36.01909 -7.34774 17734 ft 322 kts 108°
2026-04-26 19:19 36.01330 -7.32121 17439 ft 319 kts 105°
2026-04-26 19:19 36.00803 -7.29468 17092 ft 318 kts 104°
2026-04-26 19:19 36.00286 -7.26822 16756 ft 316 kts 104°
2026-04-26 19:20 35.99769 -7.24190 16425 ft 314 kts 105°
2026-04-26 19:20 35.99417 -7.22418 16206 ft 313 kts 105°
2026-04-26 19:20 35.98720 -7.18955 15767 ft 312 kts 105°
2026-04-26 19:20 35.98192 -7.16356 15438 ft 312 kts 105°
2026-04-26 19:21 35.97661 -7.13766 15114 ft 311 kts 105°
2026-04-26 19:21 35.97130 -7.11183 14788 ft 310 kts 105°
2026-04-26 19:21 35.96599 -7.08603 14464 ft 310 kts 106°
2026-04-26 19:21 35.96068 -7.06028 14137 ft 309 kts 105°
2026-04-26 19:22 35.95542 -7.03482 13798 ft 310 kts 105°
2026-04-26 19:22 35.95008 -7.00908 13441 ft 309 kts 106°
2026-04-26 19:22 35.94473 -6.98335 13094 ft 309 kts 106°
2026-04-26 19:22 35.93941 -6.95768 12758 ft 308 kts 105°
2026-04-26 19:23 35.93412 -6.93218 12424 ft 307 kts 105°
2026-04-26 19:23 35.92885 -6.90677 12095 ft 304 kts 105°
2026-04-26 19:23 35.92357 -6.88152 11768 ft 303 kts 105°
2026-04-26 19:23 35.91832 -6.85637 11457 ft 302 kts 105°
2026-04-26 19:24 35.91311 -6.83135 11131 ft 301 kts 105°
2026-04-26 19:24 35.90790 -6.80639 10811 ft 300 kts 105°
2026-04-26 19:24 35.89764 -6.75732 10426 ft 288 kts 105°
2026-04-26 19:25 35.89274 -6.73399 10291 ft 281 kts 105°
2026-04-26 19:25 35.88944 -6.71830 10207 ft 276 kts 105°
2026-04-26 19:25 35.88315 -6.68851 10057 ft 266 kts 105°
2026-04-26 19:25 35.87858 -6.66670 9870 ft 261 kts 104°
2026-04-26 19:26 35.87404 -6.64505 9597 ft 260 kts 105°
2026-04-26 19:26 35.86953 -6.62362 9316 ft 258 kts 105°
2026-04-26 19:26 35.86504 -6.60238 9054 ft 255 kts 105°
2026-04-26 19:26 35.86057 -6.58124 8818 ft 254 kts 105°
2026-04-26 19:27 35.85613 -6.56026 8546 ft 252 kts 104°
2026-04-26 19:27 35.85173 -6.53939 8280 ft 251 kts 104°
2026-04-26 19:27 35.84734 -6.51864 8028 ft 249 kts 104°
2026-04-26 19:27 35.84297 -6.49805 7778 ft 247 kts 104°
2026-04-26 19:28 35.83865 -6.47763 7529 ft 246 kts 104°
2026-04-26 19:28 35.83428 -6.45729 7267 ft 245 kts 108°
2026-04-26 19:28 35.82662 -6.43915 7010 ft 242 kts 127°
2026-04-26 19:28 35.81626 -6.42287 6778 ft 241 kts 128°
2026-04-26 19:29 35.80602 -6.40667 6540 ft 239 kts 127°
2026-04-26 19:29 35.79590 -6.39047 6286 ft 238 kts 127°
2026-04-26 19:29 35.78586 -6.37429 6011 ft 237 kts 127°
2026-04-26 19:29 35.77595 -6.35825 5773 ft 234 kts 126°
2026-04-26 19:30 35.76612 -6.34229 5509 ft 233 kts 127°
2026-04-26 19:30 35.75636 -6.32650 5267 ft 231 kts 126°
2026-04-26 19:30 35.74665 -6.31079 5026 ft 230 kts 125°
2026-04-26 19:30 35.74123 -6.29939 4846 ft 229 kts 107°
2026-04-26 19:31 35.73984 -6.27390 4549 ft 225 kts 84°
2026-04-26 19:31 35.74291 -6.25520 4381 ft 219 kts 77°
2026-04-26 19:31 35.74678 -6.23738 4204 ft 215 kts 73°
2026-04-26 19:31 35.75153 -6.22008 4017 ft 211 kts 72°
2026-04-26 19:32 35.75796 -6.18867 3633 ft 197 kts 93°
2026-04-26 19:32 35.75645 -6.17234 3457 ft 190 kts 96°
2026-04-26 19:32 35.75491 -6.15629 3271 ft 187 kts 95°
2026-04-26 19:33 35.75340 -6.14054 3047 ft 183 kts 96°
2026-04-26 19:33 35.75205 -6.12549 2862 ft 174 kts 95°
2026-04-26 19:33 35.75063 -6.11097 2695 ft 165 kts 96°
2026-04-26 19:33 35.74945 -6.09728 2476 ft 155 kts 97°
2026-04-26 19:34 35.74706 -6.08468 2232 ft 146 kts 103°
2026-04-26 19:34 35.74494 -6.07316 2094 ft 131 kts 99°
2026-04-26 19:34 35.74402 -6.06203 2053 ft 133 kts 96°
2026-04-26 19:34 35.74340 -6.05096 1971 ft 125 kts 95°
2026-04-26 19:35 35.74290 -6.04045 1804 ft 121 kts 96°
2026-04-26 19:35 35.74234 -6.03406 1692 ft 119 kts 98°
2026-04-26 19:35 35.74150 -6.02783 1569 ft 120 kts 98°
2026-04-26 19:35 35.74024 -6.01764 1391 ft 121 kts 97°
2026-04-26 19:36 35.73938 -6.00726 1296 ft 123 kts 96°
2026-04-26 19:36 35.73887 -6.00014 1211 ft 123 kts 96°
2026-04-26 19:36 35.73754 -5.98631 970 ft 121 kts 96°
2026-04-26 19:36 35.73648 -5.97591 762 ft 124 kts 94°
2026-04-26 19:37 35.73556 -5.96534 589 ft 127 kts 92°
2026-04-26 19:37 35.73472 -5.95429 429 ft 132 kts 94°
2026-04-26 19:37 35.73367 -5.94289 193 ft 135 kts 95°
2026-04-26 19:37 35.73261 -5.93173 58 ft 123 kts 95°
2026-04-26 19:38 35.73190 -5.92391 54 ft 61 kts 96°
2026-04-26 19:38 35.73162 -5.92102 59 ft 21 kts 96°
2026-04-26 19:38 35.73147 -5.91927 55 ft 19 kts 96°
2026-04-26 19:38 35.73099 -5.91781 59 ft 18 kts 134°
2026-04-26 19:39 35.73018 -5.91734 59 ft 6 kts 171°
2026-04-26 19:39 35.72997 -5.91731 54 ft 1 kts 173°
2026-04-26 19:39 35.72987 -5.91730 59 ft 2 kts 174°
2026-04-26 19:39 35.72966 -5.91728 55 ft 5 kts 176°
2026-04-26 19:40 35.72922 -5.91725 56 ft 8 kts 176°
2026-04-26 19:40 35.72869 -5.91715 59 ft 6 kts 151°
2026-04-26 19:40 35.72859 -5.91688 59 ft 3 kts 94°